Regional Weather Roundup
Issued by NWS Spokane, WA

Home | Current Version | Previous Version | Text Only | Print | Product List | Glossary On
Versions: 1 2 3 4 5 6 7 8 9 10 11 12 13 14 15 16 17 18 19 20 21 22 23 24 25 26 27 28 29 30 31 32 33 34 35 36 37 38 39 40 41 42 43 44 45 46 47 48 49 50
744
NZUS01 KOTX 102010
RWROTX
EASTERN WASHINGTON/NORTHERN IDAHO ROUNDUP
NATIONAL WEATHER SERVICE, SPOKANE WA
1200 PM PST WED FEB 10 2016

Note: "fair" indicated few or no clouds below 12,000 feet with no
significant weather and/or obstructions to visibility.

...NORTHEAST WASHINGTON AND NORTHERN IDAHO PANHANDLE...

CITY           SKY/WX    TMP DP  RH WIND       PRES   REMARKS
SPOKANE INTL   CLOUDY    38  33  82 NE3       30.25F
SPOKANE DOWNTO CLOUDY    39  34  82 E6        30.26F
COEUR D ALENE  PTSUNNY   37  34  87 NE10      30.23F
DEER PARK      CLOUDY    39  33  79 CALM      30.26F
SANDPOINT      PTSUNNY   32  32 100 CALM      30.29F
BONNERS FERRY  FOG       32  30  93 CALM      30.28S VSB<1/4

...SOUTHEAST WASHINGTON AND SOUTHERN IDAHO PANHANDLE...

CITY           SKY/WX    TMP DP  RH WIND       PRES   REMARKS
WALLA WALLA    PTSUNNY   45  37  73 CALM      30.26F
PULLMAN/MOSCOW CLOUDY    48  34  58 SE17      30.26F
LEWISTON       PTSUNNY   50  35  56 SE6       30.26F
LOWELL           N/A     51  35  54 CALM      30.32F

...COLUMBIA BASIN...

CITY           SKY/WX    TMP DP  RH WIND       PRES   REMARKS
EPHRATA        CLOUDY    43  36  76 NE3       30.25F
MOSES LAKE     CLOUDY    42  35  76 VRB3      30.26F
TRI CITIES     CLOUDY    42  35  76 CALM      30.31F
HERMISTON      CLOUDY    45  37  73 E3        30.28F
PENDLETON      MOSUNNY   46  37  71 CALM      30.26F

...EAST SLOPES CASCADES...

CITY           SKY/WX    TMP DP  RH WIND       PRES   REMARKS
THE DALLES     CLOUDY    43  36  76 CALM      30.32F
YAKIMA         CLOUDY    43  33  68 CALM      30.27F
ELLENSBURG     CLOUDY    32  27  81 CALM      30.26S HAZE
WENATCHEE      CLOUDY    35  31  85 CALM      30.27F
OMAK           CLOUDY    32  28  85 SW3       30.28F

...SOUTHERN BRITISH COLUMBIA...

CITY           SKY/WX    TMP DP  RH WIND       PRES   REMARKS
PENTICTON      PTSUNNY   39  32  75 S10       30.22S
CASTLEGAR      PTSUNNY   34  30  86 VRB2      30.28F
CRANBROOK      PTSUNNY   32  25  74 CALM      30.22F

...WESTERN MONTANA...

CITY           SKY/WX    TMP DP  RH WIND       PRES   REMARKS
MISSOULA       SUNNY     32  28  85 W3        30.28F

...NEIGHBORING CITIES...

CITY           SKY/WX    TMP DP  RH WIND       PRES   REMARKS
SEATTLE        CLOUDY    49  46  90 SE12      30.24R
CALGARY        PTSUNNY   37  28  70 SE6       30.05F



USA.gov is the U.S. government's official web portal to all federal, state and local government web resources and services.